Simultaneous Nadir Overpasses (SNOs) Predictions

Prediction of SNOs between LANDSAT-8 and METOP-A Satellite Orbit:

Table of predicted SNOs for the next 14.0 days since TLE Epoch: 1/8/2018
Index Date (LANDSAT-8) Time (LANDSAT-8) Lat,Lon (LANDSAT-8) SZA (LANDSAT-8 ) Date (METOP-A) Time (METOP-A) Lat,Lon (METOP-A) SZA (METOP-A ) Distance(km) Time Diff (sec)
1 01/09/2018 06:04:52 81.29, 131.19 105.35 01/09/2018 06:04:16 81.28, 131.19 105.34 0.37 36
2 01/09/2018 06:54:18 -81.30, -60.90 74.62 01/09/2018 06:54:56 -81.29, -61.09 74.63 3.30 38
3 01/12/2018 01:39:06 81.29,-162.39 104.90 01/12/2018 01:38:35 81.28,-162.44 104.88 1.02 31
4 01/12/2018 02:28:32 -81.30, 5.55 75.07 01/12/2018 02:29:14 -81.30, 5.67 75.04 2.19 42
5 01/14/2018 21:13:20 81.28, -96.00 104.39 01/14/2018 21:12:54 81.28, -96.08 104.37 1.48 26
6 01/14/2018 22:02:46 -81.30, 71.96 75.58 01/14/2018 22:03:33 -81.30, 72.04 75.56 1.32 47
7 01/17/2018 16:47:33 81.28, -29.63 103.82 01/17/2018 16:47:12 81.28, -29.73 103.80 1.65 21
8 01/17/2018 17:36:59 -81.30, 138.35 76.15 01/17/2018 17:37:51 -81.30, 138.39 76.12 0.78 52
9 01/20/2018 12:21:46 81.29, 37.07 103.25 01/20/2018 12:21:30 81.29, 37.00 103.23 1.42 16




NCC Satellite Simultaneous Nadir Overpasses (SNOs) Prediction Service
